Regional Weather Roundup
Issued by NWS

Home | Current Version | Previous Version | Graphics & Text | Print | Product List | Glossary On
Versions: 1 2 3 4 5 6 7 8 9 10 11 12 13 14 15 16 17 18 19 20 21 22 23 24 25 26 27 28 29 30 31 32 33 34 35 36 37 38 39 40 41 42 43 44 45 46 47 48 49 50
000
ASUS45 KABQ 231901
RWRNM
NEW MEXICO REGIONAL WEATHER ROUNDUP
NATIONAL WEATHER SERVICE ALBUQUERQUE NM
1200 PM MST MON JAN 23 2017

NOTE: "FAIR" MEANS FEW OR NO CLOUDS BELOW 12,000 FEET AGL WITH NO
       SIGNIFICANT WEATHER OR OBSTRUCTIONS TO VISION.

      THIS PRODUCT IS RELEASED AS TWO VERSIONS.  ONE VERSION NEAR
      THE TOP OF THE HOUR CONTAINING PRELIMINARY DATA FROM ALBUQUERQUE
      AND OTHER STATIONS.  A FINAL VERSION WITH ADDITIONAL DATA IS
      ISSUED ABOUT 10 MINUTES AFTER THE HOUR.

NMZ501-503-504-510>518-232000-
NORTHWEST PLATEAU/NORTHCENTRAL MOUNTAINS

CITY           SKY/WX    TMP DP  RH WIND       PRES   REMARKS
FARMINGTON     PTSUNNY   47  31  53 SW10      29.77F
LOS ALAMOS     FAIR      39  28  64 S13       29.88F WCI  31
SANTA FE       FAIR      46  29  51 SW10      29.87F
TAOS           CLOUDY    36  21  55 CALM      29.86F
ANGEL FIRE     CLOUDY    34  26  72 SW10G20   29.85F WCI  26

$$
NMZ402-403-502-505>509-232000-
WESTCENTRAL MOUNTAINS/SOUTHWEST MOUNTAINS

CITY           SKY/WX    TMP DP  RH WIND       PRES   REMARKS
GALLUP         FAIR      42  30  62 S15       29.81F
GRANTS         FAIR      49  28  43 SW20G32   29.87F
SILVER CITY    PTSUNNY   55  32  41 S12G20    29.99F

$$
NMZ407-409-411-412-232000-
SOUTHERN DESERTS

CITY           SKY/WX    TMP DP  RH WIND       PRES   REMARKS
DEMING         FAIR      54  33  45 VRB5      29.99F
LAS CRUCES     FAIR      55  32  41 S9        30.00F
ALAMOGORDO     FAIR      57  32  38 S17       29.98F
T OR C         FAIR      55  30  38 S18G26    29.92F

$$
NMZ519>523-232000-
CENTRAL VALLEYS/CENTRAL HIGHLANDS

CITY           SKY/WX    TMP DP  RH WIND       PRES   REMARKS
ALBUQUERQUE    FAIR      50  28  42 S18       29.87F
DOUBLE EAGLE   MOSUNNY   48  28  46 S16       29.88F
MORIARTY ARPT  FAIR      53  24  31 SW21G28   29.88F
CLINES CORNERS FAIR      45  27  49 SW21G33   29.89F
BELEN          FAIR      53  27  36 S17       29.88F
SOCORRO        FAIR      54  28  37 SE20G25   29.88F

$$
NMZ524>526-539-540-232000-
SOUTHCENTRAL MOUNTAINS

CITY           SKY/WX    TMP DP  RH WIND       PRES   REMARKS
RUIDOSO        NOT AVBL

$$
NMZ527>531-232000-
NORTHEAST HIGHLANDS/NORTHEAST PLAINS

CITY           SKY/WX    TMP DP  RH WIND       PRES   REMARKS
LAS VEGAS      FAIR      46  28  49 SW21G31   29.84F
RATON          FAIR      53  22  29 SW29G38   29.76F
CLAYTON        FAIR      59  27  29 W26G41    29.74F

$$
NMZ532>537-232000-
EASTCENTRAL PLAINS

CITY           SKY/WX    TMP DP  RH WIND       PRES   REMARKS
TUCUMCARI      FAIR      65  31  28 W23G31    29.80F
CANNON AFB     FAIR      61  29  29 W20G25    29.85F
CLOVIS AIRPORT FAIR      63  30  29 W21G28    29.85F

$$
NMZ028-029-538-232000-
SOUTHEAST PLAINS

CITY           SKY/WX    TMP DP  RH WIND       PRES   REMARKS
ROSWELL        FAIR      68  30  24 VRB3      29.86
ARTESIA        FAIR      66  28  24 SW30      29.90F
CARLSBAD       FAIR      62  33  33 SE3       29.92F
HOBBS          SUNNY     63  27  25 SW22      29.92F


$$




USA.gov is the U.S. government's official web portal to all federal, state and local government web resources and services.